CZ-3C DEB, 40863

Orbit data source: Space-Track

CZ-3C DEB, 40863 is space debris in HEO originally from a launch on Fri, 24 Feb 2012 UTC launched from the Xichang Space Center, China (XSC). Debris objects in space refer to the collection of defunct objects orbiting the Earth. Examples of debris include non-operational satellites, rocket bodies, and fragments generated from explosions, collisions, or faulty payload assembly.

Loading next visibility...
Identifier
40863, 2012-008AD
Orbit
HEO
Country
Flag of CNCN / PRC
Related business
Manufacturer
CALT
Mission
Spacecraft
Bus & Motor
Unknown
Mass
Unknown
Launch date (UTC)
2012-02-24 (14 years ago)
Launch vehicle
Unknown
Launch site
Xichang Space Center, China (XSC)
Object type
Payload
Rocket body
Debris
Shape & HBR
Unknown shape, 0.2 m
Radar Cross Section
Medium (>0.1 m² and <1 m²)

Expand to show TLE details & history
Last TLE update: 6 days ago

TLE from 6 days ago
0 CZ-3C DEB
1 40863U 12008AD  26230.75215373 -.00000010  00000-0  00000-0 0  9990
2 40863  20.3323 168.6807 7067670 283.6598  12.3132  2.20873940 93623
Epoch: 2026-08-18T18:03Z
TLE epoch observation values (Epoch: 2026-08-18T18:03:06.082Z)
Latitude
-0.00001°
Longitude
-69.33147°
Altitude
4,298.822 km
Speed
7.659 km/s
True Right ascension
11h 14m 14s
True Declination
0° 00' 00"
Sunlit
Object was in daylight at epoch
Visualization orbit readout
Latitude
Unknown
Longitude
Unknown
Altitude
Unknown
Speed
Unknown
Apparent Right ascension
Unknown
Apparent Declination
Unknown
Sunlit
N/A
Visualization observer readout
Local Sidereal Time
23:04:01
Azimuth
Unknown
Elevation
Unknown
Doppler factor
Unknown
Orbital elements
Apogee altitude
36,137.76 km
Perigee altitude
926.354 km
Semi-major axis
24,910.194 km
Eccentricity
0.70677
Inclination
20.3323°
RAAN
168.6807°
Arg. of periapsis
283.6598°
True anomaly
76.62859°
Mean anomaly
12.3132°
Eccentric anomaly
36.26894°
Mean motion
0.55205 °/min
Orbital period
652.12 mins
BSTAR
0
Loading maneuver chart data...
Computing Atmospheric mass density...
Loading historical data...
Loading historical data...
Loading historical data...
Loading historical data...
Loading historical data...
Loading historical data...
Loading historical data...

Documentation

Showing up to 5 results
|